This demonstration page uses our WeatherBlox Daily Observations layout. Learn more.

Left ArrowRight Arrow

40.92501, -98.34201

Hourly Observations for June 10, 2015

Temp ( °F °C ) Dew Point ( °F °C ) Humidity (%) Winds ( mph kmh ) Pressure ( in mb ) Visibility ( mi km ) Precip ( " mm )
12:53 am 00:53 Clear 77 25 60 15.6 56 56 SSW 3 6 29.72 1007 10 16 0.00 0.00
1:53 am 01:53 Clear 69 20.6 62 16.7 78 78 N 6 9 29.73 1007 10 16 0.00 0.00
2:53 am 02:53 Clear 68 20 62 16.7 81 81 Calm 29.72 1007 10 16 0.00 0.00
3:53 am 03:53 Clear 69 20.6 62 16.7 78 78 SW 5 7 29.72 1007 10 16 0.00 0.00
4:53 am 04:53 Clear 71 21.7 60 15.6 68 68 SW 5 7 29.72 1007 10 16 0.00 0.00
5:53 am 05:53 Clear 68 20 59 15 73 73 NNW 5 7 29.72 1007 10 16 0.00 0.00
6:53 am 06:53 Sunny 67 19.4 61 16.1 81 81 WNW 5 7 29.74 1007 10 16 0.00 0.00
7:53 am 07:53 Sunny 74 23.3 62 16.7 67 67 Calm 29.75 1008 10 16 0.00 0.00
8:53 am 08:53 Sunny 79 26.1 61 16.1 54 54 NE 10 17 29.76 1008 10 16 0.00 0.00
9:53 am 09:53 Sunny 80 26.7 63 17.2 56 56 ENE 10 17 29.76 1008 10 16 0.00 0.00
10:53 am 10:53 Sunny 82 27.8 65 18.3 56 56 ESE 9 15 29.75 1008 10 16 0.00 0.00
11:53 am 11:53 Sunny 86 30 65 18.3 49 49 E 7 11 29.75 1007 10 16 0.00 0.00
12:53 pm 12:53 Sunny 90 32.2 65 18.3 44 44 ESE 9 15 29.72 1007 10 16 0.00 0.00
1:53 pm 13:53 Sunny 93 33.9 64 17.8 38 38 ESE 7 11 29.70 1006 10 16 0.00 0.00
2:53 pm 14:53 Sunny 94 34.4 59 15 31 31 S 16 26 29.68 1005 10 16 0.00 0.00
3:53 pm 15:53 Sunny 95 35 59 15 30 30 S 13 20 29.66 1004 10 16 0.00 0.00
4:53 pm 16:53 Sunny 91 32.8 58 14.4 33 33 SSE 12 19 29.64 1004 10 16 0.00 0.00
5:53 pm 17:53 Sunny 87 30.6 62 16.7 43 43 S 9 15 29.64 1004 10 16 0.00 0.00
6:53 pm 18:53 Sunny 86 30 64 17.8 48 48 SE 9 15 29.62 1003 10 16 0.00 0.00
7:15 pm 19:15 Mostly Cloudy with Nearby Thunderstorms 84 28.9 63 17.2 49 49 undefined N/A 29.59 1002 10 16 0.00 0.00
7:19 pm 19:19 Mostly Cloudy with Nearby Thunderstorms 77 25 62 16.7 60 60 NW 28 44 29.62 1003 10 16 0.00 0.03
7:35 pm 19:35 Windy with Storms Likely 69 20.6 64 17.8 84 84 NW 32 52 29.65 1004 10 16 0.00 0.03
7:53 pm 19:53 Windy with Storms Likely 69 20.6 65 18.3 87 87 N 26 43 29.67 1005 8 13 0.00 0.03
8:09 pm 20:09 Cloudy with Strong Thunderstorms 69 20.6 65 18.3 87 87 NNE 24 39 29.62 1003 2 3 0.10 2.54
8:19 pm 20:19 Windy with Storms Likely 69 20.6 65 18.3 87 87 NNE 25 41 29.62 1003 5 8 0.11 2.79
8:43 pm 20:43 Mostly Cloudy with Strong Thunderstorms 70 21 66 19 88 88 W 12 19 29.74 1007 2 3 0.00 0.00
8:48 pm 20:48 Mostly Cloudy with Strong Thunderstorms 68 20 66 19 94 94 undefined N/A 29.71 1006 1 1 0.41 10.41
8:53 pm 20:53 Cloudy with Strong Thunderstorms 68 20 66 18.9 93 93 NNE 26 43 29.72 1006 1 2 0.63 16.00
8:57 pm 20:57 Windy with Storms Likely 68 20 66 18.9 93 93 N 25 41 29.71 1006 2 3 0.00 0.03
9:05 pm 21:05 Windy with Storms Likely 67 19.4 65 18.3 93 93 N 24 39 29.68 1005 8 13 0.00 0.03
9:19 pm 21:19 Cloudy with Nearby Thunderstorms 66 19 64 18 94 94 NNE 17 28 29.74 1007 10 16 0.00 0.00
9:28 pm 21:28 Cloudy with Light Rain 66 19 64 18 94 94 NNE 21 33 29.68 1005 10 16 0.00 0.00
9:53 pm 21:53 Mostly Cloudy with Light Rain 67 19.4 64 17.8 91 91 ENE 12 19 29.74 1007 10 16 0.01 0.25
10:02 pm 22:02 Mostly Cloudy with Nearby Thunderstorms 67 19.4 64 17.8 91 91 ENE 10 17 29.77 1008 8 13 0.02 0.51
10:17 pm 22:17 Cloudy with Heavy Rain 66 18.9 64 17.8 93 93 ENE 15 24 29.74 1007 3 5 0.07 1.78
10:25 pm 22:25 Cloudy with Nearby Thunderstorms 66 18.9 64 17.8 93 93 E 12 19 29.77 1008 4 6 0.11 2.79
10:51 pm 22:51 Cloudy with Rain 66 19 64 18 94 94 ENE 12 19 29.77 1008 4 6 0.20 5.08
10:53 pm 22:53 Cloudy with Rain 66 18.9 64 17.8 93 93 ENE 10 17 29.78 1008 4 6 0.21 5.33
11:35 pm 23:35 Cloudy with Thunderstorms 65 18.3 64 17.8 97 97 NNE 16 26 29.74 1007 5 8 0.14 3.56
11:50 pm 23:50 Mostly Cloudy with Light Rain 64 18 64 18 100 100 NE 14 22 29.74 1007 5 8 0.19 4.83
11:53 pm 23:53 Mostly Cloudy with Light Rain 65 18.3 64 17.8 97 97 NE 15 24 29.74 1007 5 8 0.20 5.08

Powered by AerisWeather